Flag for Netherlands

Past Weather in 52°32'18"N, 4°43'07"E, Netherlands — Yesterday and Last 2 Weeks

Now
46 °F

Clear.


Feels Like: 42 °F
Forecast: 59 / 46 °F
Wind: 9 mph from Southeast

Location: Amsterdam Schiphol Airport
Current Time: Oct 20, 2020 at 12:10:53 am
Latest Report: Oct 19, 2020 at 11:25 pm
Visibility: 10 mi
Pressure29.95 "Hg
Humidity: 82%
Dew Point: 41 °F
Location of 52°32'18"N, 4°43'07"ELocation

Past Weather in 52°32'18"N, 4°43'07"E — Graph

°F

52°32'18"N, 4°43'07"E Temperature Yesterday

Maximum temperature yesterday: 54 °F (at 3:25 pm)
Minimum temperature yesterday: 41 °F (at 12:25 am)
Average temperature yesterday: 48 °F

High & Low Weather Summary for the Past Weeks

 TemperatureHumidityPressure
High63 °F (Oct 8, 4:55 pm)100% (Oct 7, 2:25 am)30.24 "Hg (Oct 7, 2:25 am)
Low39 °F (Oct 11, 3:25 am)54% (Oct 16, 3:25 pm)29.30 "Hg (Oct 4, 10:25 pm)
Average51 °F83%29.95 "Hg
* Reported Oct 4 10:25 pm — Oct 19 10:25 pm, 52°32'18"N, 4°43'07"E. Weather by CustomWeather, © 2020

Note: Actual official high and low records may vary slightly from our data, if they occured in-between our weather recording intervals... More about our weather records

52°32'18"N, 4°43'07"E Weather History for the Previous 24 Hours

Scroll right to see more
 ConditionsComfort  
Time TempWeatherWind HumidityBarometerVisibility
10:25 pm
Mon, Oct 19
48 °FClear.10 mph82%29.98 "Hg10 mi
9:55 pm48 °FClear.10 mph82%29.98 "Hg10 mi
9:25 pm48 °FClear.9 mph82%30.01 "Hg10 mi
8:55 pm46 °FClear.8 mph82%30.01 "Hg10 mi
8:25 pm46 °FClear.8 mph82%30.01 "Hg10 mi
7:55 pm46 °FClear.9 mph82%30.01 "Hg10 mi
7:25 pm46 °FClear.8 mph82%30.04 "Hg10 mi
6:55 pm48 °FClear.8 mph71%30.04 "Hg10 mi
6:25 pm50 °FSunny.9 mph71%30.04 "Hg10 mi
5:55 pm52 °FSunny.8 mph67%30.04 "Hg10 mi
5:25 pm54 °FSunny.9 mph72%30.04 "Hg10 mi
4:55 pm54 °FPassing clouds.6 mph72%30.07 "HgN/A
4:25 pm54 °FPassing clouds.7 mph77%30.07 "HgN/A
3:55 pm54 °FPassing clouds.9 mph77%30.07 "HgN/A
3:25 pm54 °FSunny.10 mph77%30.09 "Hg10 mi
2:55 pm52 °FPassing clouds.9 mph82%30.09 "HgN/A
2:25 pm52 °FPassing clouds.9 mph82%30.09 "HgN/A
1:55 pm52 °FPassing clouds.8 mph88%30.12 "HgN/A
1:25 pm52 °FPassing clouds.9 mph88%30.12 "HgN/A
12:55 pm52 °FPassing clouds.9 mph88%30.12 "HgN/A
10:25 am50 °FPartly sunny.6 mph94%30.15 "HgN/A
9:55 am50 °FPartly sunny.5 mph94%30.15 "HgN/A
9:25 am48 °FPartly sunny.6 mph100%30.15 "HgN/A
8:55 am48 °FSprinkles. Partly sunny.7 mph94%30.15 "HgN/A
7:55 am48 °FSprinkles. Passing clouds.6 mph94%30.12 "Hg4 mi
7:25 am48 °FPassing clouds.6 mph94%30.15 "HgN/A
6:55 am45 °FPassing clouds.3 mph100%30.12 "HgN/A
6:25 am46 °FPassing clouds.5 mph93%30.15 "HgN/A
5:55 am46 °FPartly cloudy.1 mph100%30.15 "HgN/A
5:25 am46 °FSprinkles. Passing clouds.3 mph100%30.15 "Hg4 mi
4:55 am45 °FSprinkles. Passing clouds.5 mph93%30.15 "HgN/A
4:25 am45 °FPassing clouds.5 mph100%30.15 "HgN/A
3:55 am48 °FSprinkles. Passing clouds.3 mph94%30.18 "Hg6 mi
3:25 am46 °FSprinkles. Passing clouds.3 mph93%30.15 "Hg4 mi
2:55 am46 °FScattered showers. Passing clouds.1 mph100%30.15 "HgN/A
1:55 am48 °FSprinkles. Passing clouds.7 mph94%30.18 "Hg6 mi
1:25 am45 °FSprinkles. Fog.6 mph100%30.15 "HgN/A
12:55 am43 °FFog.3 mph93%30.15 "HgN/A
12:25 am41 °FFog.3 mph100%30.15 "HgN/A
Weather by CustomWeather, © 2020

See weather overview